Location: Decatur(IL)
(39.8400°N, 88.9550°W)
Time: 02:23:10
(UTC-05:00)

Cosmos 1953 - Visible Passes

Search period start: 01 June 2016 00:00
Search period end: 11 June 2016 00:00
Orbit: 541 x 562 km, 82.5° (Epoch: 31 May)

Date Brightness Start Highest point End Pass type
(mag) Time Alt. Az. Time Alt. Az. Time Alt. Az.
01 Jun 2.7 22:44:50 10° NNW 22:48:45 57° W 22:49:30 47° SW visible
02 Jun 4.5 21:07:09 10° NE 21:08:18 11° ENE 21:09:26 10° E visible
02 Jun 2.9 22:41:13 10° NNW 22:45:05 50° W 22:46:08 38° SW visible
03 Jun 4.5 21:02:59 10° NE 21:04:42 12° ENE 21:06:23 10° E visible
03 Jun 3.2 22:37:36 10° NNW 22:41:24 44° W 22:42:47 31° SW visible
04 Jun 4.4 20:59:00 10° NE 21:01:05 14° ENE 21:03:09 10° ESE visible
04 Jun 3.4 22:34:00 10° NNW 22:37:44 39° W 22:39:27 25° SW visible
05 Jun 4.2 20:55:04 10° NE 20:57:27 15° ENE 20:59:51 10° ESE visible
05 Jun 3.6 22:30:24 10° NNW 22:34:03 35° W 22:36:08 21° SW visible
06 Jun 4.1 20:51:11 10° NNE 20:53:50 17° ENE 20:56:30 10° ESE visible
06 Jun 3.9 22:26:49 10° NNW 22:30:22 31° W 22:32:51 16° SW visible
07 Jun 4.0 20:47:21 10° NNE 20:50:13 19° ENE 20:53:05 10° ESE visible
07 Jun 4.1 22:23:15 10° NNW 22:26:41 28° W 22:29:35 13° SW visible
08 Jun 4.3 22:19:42 10° NW 22:23:01 25° W 22:26:18 10° SW visible
09 Jun 4.5 22:16:10 10° NW 22:19:19 23° W 22:22:28 10° SW visible
10 Jun 4.7 22:12:39 10° NW 22:15:37 20° W 22:18:36 10° SW visible
